{"data":{"norad_id":53415,"intl_designator":"2022-097AD","name":"STARLINK-4479","alt_names":[],"object_type":"PAYLOAD","status":"ACTIVE","operator":null,"country":"US","launch_date":"2022-08-10","launch_site_code":"AFETR","launch_vehicle":null,"mission":null,"orbit_class":"UNKNOWN","rcs_meters":null,"size_class":null,"mass_kg":null,"dimensions":null,"purposes":["comms"],"wikipedia_slug":null,"has_3d_model":false,"image_url":null,"decayed_at":null,"tle_current":{"epoch":"2026-05-25T03:10:28.572960Z","epoch_age_seconds":63396,"freshness":"FRESH","line1":"1 53415U 22097AD  26145.13227515  .00001054  00000+0  84276-4 0  9992","line2":"2 53415  53.2154 130.9540 0001261  52.4669 307.6438 15.08848936210167","mean_motion":15.08848936,"eccentricity":0.0001261,"inclination_deg":53.2154,"raan_deg":130.954,"arg_perigee_deg":52.4669,"mean_anomaly_deg":307.6438,"bstar":8.4276e-5,"rev_number":21016,"period_min":95.436989458831,"perigee_km":538.84373404901,"apogee_km":540.58841659461,"semimajor_km":6917.8530753218,"source":"CELESTRAK","updated_at":"2026-05-25T13:38:17.401764Z"}}}